Regional Weather Roundup
Issued by NWS Kansas City/Pleasant Hill, MO

Home | Current Version | Previous Version | Graphics & Text | Print | Product List | Glossary Off
Versions: 1 2 3 4 5 6 7 8 9 10 11 12 13 14 15 16 17 18 19 20 21 22 23 24 25 26 27 28 29 30 31 32 33 34 35 36 37 38 39 40 41 42 43 44 45 46 47 48 49 50

000
ASUS43 KEAX 260610
RWREAX

WEATHER ROUNDUP FOR EASTERN KANSAS AND NORTHWEST MISSOURI
NATIONAL WEATHER SERVICE KANSAS CITY/PLEASANT HILL MO
100 AM CDT SUN MAR 26 2017

KSZ040-057-103>105-MOZ028-029-037-043-260700-
...KANSAS CITY METROPOLITAN AREA...

CITY           SKY/WX    TMP DP  RH WIND       PRES   REMARKS
K.C. INTL      CLOUDY    44  43  96 NW8       29.88F
6HR MIN TEMP:  44; 6HR MAX TEMP:  48;

K.C. DOWNTOWN  CLOUDY    47  43  86 NW7       29.87F
6HR MIN TEMP:  47; 6HR MAX TEMP:  52;

LEES SUMMIT    CLOUDY    46  45  96 NW7       29.86F
6HR MIN TEMP:  46; 6HR MAX TEMP:  53;

OLATHE - IXD   CLOUDY    44  42  93 NW8       29.89R
6HR MIN TEMP:  44; 6HR MAX TEMP:  48;

OLATHE - OJC   CLOUDY    44  44 100 NW7       29.87S
6HR MIN TEMP:  44; 6HR MAX TEMP:  49;

LAWRENCE       CLOUDY    44  42  93 NW8       29.90S

$$

MOZ001>008-011>017-020>025-030>033-038>040-044>046-053-054-260700-
...NORTHERN AND CENTRAL MISSOURI...

CITY           SKY/WX    TMP DP  RH WIND       PRES   REMARKS
ST. JOSEPH     CLOUDY    44  43  96 NW6       29.89F
6HR MIN TEMP:  44; 6HR MAX TEMP:  46;

MOSBY          CLOUDY    45  43  93 NW5       29.87F
WARRENSBURG    CLOUDY    46  45  93 NW7       29.86F
WHITEMAN AFB   CLOUDY    48  48 100 NW6       29.85S
6HR MIN TEMP:  48; 6HR MAX TEMP:  53; 6HR PCP:  0.14;

CLINTON        CLOUDY    48  48 100 NW6       29.88R
SEDALIA        CLOUDY    50  50 100 NW10      29.86S FOG
6HR MIN TEMP:  50; 6HR MAX TEMP:  55; 6HR PCP:  0.82;

WARSAW         NOT AVBL
CHILLICOTHE      N/A     45  44  97 NW7       29.86F
6HR MIN TEMP:  45; 6HR MAX TEMP:  50; 6HR PCP:  0.11;

KIRKSVILLE     CLOUDY    47  46  97 NW12      29.82S FOG
6HR MIN TEMP:  47; 6HR MAX TEMP:  50; 6HR PCP:  0.28;


$$

MOZ041-047>049-056>058-063>065-088>090-097-260700-
...EASTERN AND SOUTHERN MISSOURI...

CITY           SKY/WX    TMP DP  RH WIND       PRES   REMARKS
ST. LOUIS INTL MOCLDY    56  51  84 SW13      29.85S
6HR MIN TEMP:  56; 6HR MAX TEMP:  59; 6HR PCP:  0.28;

SPIRIT OF STL  CLOUDY    54  51  90 SW8       29.85R
COLUMBIA       CLOUDY    50  50 100 SW13      29.83S FOG
JEFFERSON CITY CLOUDY    52  48  86 SW6       29.85S FOG
ROLLA          CLOUDY    48  46  93 SW10      29.85S
OSAGE BEACH    CLOUDY   N/A N/A N/A SW8       29.88S HAZE
SPRINGFIELD    CLOUDY    47  43  86 SW8       29.89F
BRANSON        MOCLDY    46  46 100 CALM      29.92S FOG
JOPLIN         CLOUDY    47  45  93 SW6       29.91F
WEST PLAINS    CLOUDY    49  46  90 SW7       29.91F

$$

IAZ060-094-KSZ022-034>040-054-083-096-NEZ052-066-093-260700-
...KANSAS...SOUTHEAST NEBRASKA AND IOWA...

CITY           SKY/WX    TMP DP  RH WIND       PRES   REMARKS
TOPEKA         CLOUDY    44  43  96 NW3       29.90S
6HR MIN TEMP:  44; 6HR MAX TEMP:  47;

MANHATTAN      CLOUDY    44  41  89 N3        29.90F
EMPORIA        CLOUDY    44  44 100 N5        29.89F
CHANUTE        CLOUDY    47  44  90 W5        29.91S
WICHITA        CLOUDY    44  42  93 CALM      29.91R
OMAHA          CLOUDY    41  37  86 N8        29.91F
LINCOLN        CLOUDY    41  39  93 NW5       29.93S
FALLS CITY     CLOUDY    42  41  96 NW5       29.89S
LAMONI         CLOUDY    42  41  96 N6        29.85F FOG
DES MOINES     DRIZZLE   42  41  96 NE10      29.87F FOG

$$




USA.gov is the U.S. government's official web portal to all federal, state and local government web resources and services.